This is the latest recevied weather packets stored in our database for station/object W3EJE-13. If no packets are shown the sender has not sent any weather packets the latest 10 day(s).
| Time | Temp. | Humidity | Pressure | Rain* | Wind** | Luminosity | Snow |
|---|---|---|---|---|---|---|---|
| 1777137547 | 15.56° C | 99% | 1011.4 hPa | 0 mm | - | 101 W/m² | - |
| 1777137245 | 15.56° C | 99% | 1011.1 hPa | 0 mm | - | 87 W/m² | - |
| 1777136942 | 15.56° C | 99% | 1011 hPa | 0 mm | - | 66 W/m² | - |
| 1777136638 | 15.56° C | 99% | 1011.1 hPa | 0 mm | - | 78 W/m² | - |
| 1777136336 | 15.56° C | 99% | 1011.2 hPa | 0 mm | - | 92 W/m² | - |
| 1777136033 | 15.56° C | 99% | 1011.3 hPa | 0 mm | - | 133 W/m² | - |
| 1777135728 | 15.56° C | 99% | 1011.1 hPa | 0 mm | - | 144 W/m² | - |
| 1777135425 | 15.56° C | 99% | 1011.3 hPa | 0 mm | - | 197 W/m² | - |
| 1777135121 | 15.56° C | 99% | 1011.1 hPa | 0 mm | - | 208 W/m² | - |
| 1777134819 | 15.56° C | 99% | 1011.2 hPa | 0 mm | - | 168 W/m² | - |
| 1777134515 | 15.56° C | 99% | 1011.3 hPa | 0 mm | - | 152 W/m² | - |
| 1777134212 | 15° C | 99% | 1011.2 hPa | 0 mm | - | 172 W/m² | - |
| 1777133909 | 15° C | 99% | 1011.4 hPa | 1.27 mm | - | 174 W/m² | - |
| 1777133605 | 15° C | 99% | 1011.4 hPa | 7.87 mm | - | 149 W/m² | - |
| 1777133303 | 14.44° C | 99% | 1011.5 hPa | 13.72 mm | - | 104 W/m² | - |
| 1777133003 | 14.44° C | 99% | 1011.5 hPa | 11.94 mm | - | 50 W/m² | - |
| 1777132700 | 14.44° C | 99% | 1011.7 hPa | 10.67 mm | - | 46 W/m² | - |
| 1777132396 | 14.44° C | 99% | 1011.7 hPa | 8.89 mm | - | 57 W/m² | - |
| 1777132093 | 14.44° C | 99% | 1011.5 hPa | 8.89 mm | - | 49 W/m² | - |
| 1777131783 | 15° C | 99% | 1011.5 hPa | 6.1 mm | - | 62 W/m² | - |
| 1777131481 | 15° C | 99% | 1011.6 hPa | 3.05 mm | - | 54 W/m² | - |
| 1777131180 | 15° C | 99% | 1011.6 hPa | 1.27 mm | - | 43 W/m² | - |
| 1777130875 | 15° C | 99% | 1011.5 hPa | 1.78 mm | - | 88 W/m² | - |
| 1777130571 | 15° C | 99% | 1011.6 hPa | 3.56 mm | - | 70 W/m² | - |
| 1777130269 | 15° C | 99% | 1011.6 hPa | 3.05 mm | - | 83 W/m² | - |
* Rain latest hour (hover to see other rain measurements)
** Current wind speed in m/s (hover to see current wind gust speed)